ATLAS 5 CENTAUR DEB, 49342

Orbit data source: Space-Track

ATLAS 5 CENTAUR DEB, 49342 is space debris in HEO originally from a launch on Wed, 17 Oct 2018 UTC launched from the Air Force Eastern Test Range (AFETR). Debris objects in space refer to the collection of defunct objects orbiting the Earth. Examples of debris include non-operational satellites, rocket bodies, and fragments generated from explosions, collisions, or faulty payload assembly.

Loading next visibility...
Identifier
49342, 2018-079ET
Orbit
HEO
Country
Flag of USUS
Related business
Flag of USUnited Launch Alliance/Lockheed Martin (US)
Manufacturer
ULA Decatur
Mission
Spacecraft
Bus & Motor
Unknown
Mass
Unknown
Launch date (UTC)
2018-10-17 (8 years ago)
Launch vehicle
Unknown
Launch site
Air Force Eastern Test Range (AFETR)
Object type
Payload
Rocket body
Debris
Shape & HBR
Unknown shape, 1.1 m
Radar Cross Section
RCS unknown

Expand to show TLE details & history
Last TLE update: 3 days ago

TLE from 3 days ago
0 ATLAS 5 CENTAUR DEB
1 49342U 18079ET  26170.87231863 -.00000119  00000-0  00000+0 0  9992
2 49342  13.3522  25.1423 4757471 338.6602   6.7874  1.84618744 32415
Epoch: 2026-06-19T20:56Z
TLE epoch observation values (Epoch: 2026-06-19T20:56:08.329Z)
Latitude
0.00016°
Longitude
163.00493°
Altitude
8,697.908 km
Speed
6.219 km/s
True Right ascension
01h 40m 32s
True Declination
0° 00' 01"
Sunlit
Object was in daylight at epoch
Visualization orbit readout
Latitude
Unknown
Longitude
Unknown
Altitude
Unknown
Speed
Unknown
Apparent Right ascension
Unknown
Apparent Declination
Unknown
Sunlit
N/A
Visualization observer readout
Local Sidereal Time
21:34:51
Azimuth
Unknown
Elevation
Unknown
Doppler factor
Unknown
Orbital elements
Apogee altitude
35,046.91 km
Perigee altitude
8,337.935 km
Semi-major axis
28,070.56 km
Eccentricity
0.47575
Inclination
13.3522°
RAAN
25.1423°
Arg. of periapsis
338.6602°
True anomaly
21.39696°
Mean anomaly
6.7874°
Eccentric anomaly
12.84931°
Mean motion
0.46149 °/min
Orbital period
780.07 mins
BSTAR
0
Loading maneuver chart data...
Computing Atmospheric mass density...

Documentation

Showing up to 5 results
|